STARLINK-32536, 61925

Orbit data source: Space-Track

STARLINK-32536, 61925 is a payload satellite owned by SpaceX/Seattle (US) in LEO that was launched on Mon, 11 Nov 2024 UTC via an FALCON 9 launch vehicle from the Air Force Eastern Test Range (AFETR). Payload-class satellites include a variety of spacecraft equipped with specific instruments for various scientific and technological missions. These include communications satellites like Starlink; space stations such as the ISS; scientific satellites like the Hubble; Earth observation satellites from companies like Planet Labs, Umbra, and HawkEye 360; GPS; miniature CubeSats for education and research; and military/defense satellites.

Loading next visibility...
Identifier
61925, 2024-207P
Orbit
LEO
Country
Flag of USUS
Related business
Manufacturer
SpaceX/Seattle
Mission
Operational Commercial Communications
Bus & Motor
STARLINK V2M, Unknown motor
Mass
730 kg wet, ~700 kg dry
Launch date (UTC)
2024-11-11 (2 years ago)
Launch vehicle
FALCON 9
Launch site
Air Force Eastern Test Range (AFETR)
Object type
Payload
Rocket body
Debris
Shape & HBR
Box + 2 Pan, 17.7 m
Radar Cross Section
33.884 m², Large (>1 m²)

Expand to show TLE details & history
Last TLE update: 10 hours ago

TLE from 10 hours ago
0 STARLINK-32536
1 61925U 24207P   26264.37444630  .00009177  00000-0  34248-3 0  9997
2 61925  43.0035 260.5827 0001573 277.8827  82.1847 15.27591228104600
Epoch: 2026-09-21T08:59Z
TLE epoch observation values (Epoch: 2026-09-21T08:59:12.160Z)
Latitude
0.00005°
Longitude
125.5269°
Altitude
482.645 km
Speed
7.626 km/s
True Right ascension
17h 22m 19s
True Declination
0° 00' 00"
Sunlit
Object was in daylight at epoch
Visualization orbit readout
Latitude
Unknown
Longitude
Unknown
Altitude
Unknown
Speed
Unknown
Apparent Right ascension
Unknown
Apparent Declination
Unknown
Sunlit
N/A
Visualization observer readout
Local Sidereal Time
12:20:39
Azimuth
Unknown
Elevation
Unknown
Doppler factor
Unknown
Orbital elements
Apogee altitude
486.04 km
Perigee altitude
483.881 km
Semi-major axis
6,863.097 km
Eccentricity
0.00016
Inclination
43.0035°
RAAN
260.5827°
Arg. of periapsis
277.8827°
True anomaly
82.20256°
Mean anomaly
82.1847°
Eccentric anomaly
82.19363°
Mean motion
3.81736 °/min
Orbital period
94.31 mins
BSTAR
0.00034248
Loading maneuver chart data...
Computing Atmospheric mass density...
Loading historical data...
Loading historical data...
Loading historical data...
Loading historical data...
Loading historical data...
Loading historical data...
Loading historical data...

Documentation

Showing up to 5 results
|